StationID,Date,MaxTemp,MinTemp,Precipitation,Snowfall,SnowDepth
"USC00503687","2002-12-01",37.04,30.02,3.00,0.00,0.00
"USC00503687","2002-12-02",42.08,30.02,0.00,0.00,0.00
"USC00503687","2002-12-03",46.04,37.04,208.00,0.00,0.00
"USC00503687","2002-12-04",39.02,33.08,0.00,0.00,0.00
"USC00503687","2002-12-05",44.06,26.06,0.00,0.00,0.00
"USC00503687","2002-12-06",44.96,35.96,0.00,0.00,0.00
"USC00503687","2002-12-07",39.92,30.92,0.00,0.00,0.00
"USC00503687","2002-12-08",39.02,33.08,0.00,0.00,0.00
"USC00503687","2002-12-09",39.02,33.08,8.00,0.00,0.00
"USC00503687","2002-12-10",35.96,28.04,5.00,0.00,0.00
"USC00503687","2002-12-11",32.00,23.00,0.00,0.00,0.00
"USC00503687","2002-12-12",26.06,23.00,20.00,13.00,0.00
"USC00503687","2002-12-13",26.06,19.94,0.00,0.00,0.00
"USC00503687","2002-12-14",21.92,14.00,0.00,0.00,0.00
"USC00503687","2002-12-15",19.04,12.92,0.00,0.00,0.00
"USC00503687","2002-12-16",15.98,10.94,64.00,119.00,127.00
"USC00503687","2002-12-17",17.96,15.98,122.00,203.00,
"USC00503687","2002-12-18",30.02,17.06,8.00,0.00,305.00
"USC00503687","2002-12-19",30.02,17.06,0.00,0.00,305.00
"USC00503687","2002-12-20",32.00,21.92,0.00,0.00,254.00
"USC00503687","2002-12-21",32.00,21.02,20.00,13.00,229.00
"USC00503687","2002-12-22",33.08,26.96,216.00,330.00,559.00
"USC00503687","2002-12-23",33.08,26.06,127.00,114.00,660.00
"USC00503687","2002-12-24",28.04,21.02,46.00,0.00,660.00
"USC00503687","2002-12-25",28.04,19.94,0.00,0.00,584.00
"USC00503687","2002-12-26",23.00,10.04,25.00,38.00,584.00
"USC00503687","2002-12-27",12.92,1.94,0.00,0.00,584.00
"USC00503687","2002-12-28",14.00,-0.04,0.00,0.00,559.00
"USC00503687","2002-12-29",19.94,5.00,13.00,13.00,533.00
"USC00503687","2002-12-30",17.96,-7.96,0.00,0.00,533.00
"USC00503687","2002-12-31",12.92,-0.04,0.00,0.00,533.00
"USC00503687","2003-01-01",17.96,-0.04,0.00,0.00,483.00
"USC00503687","2003-01-02",30.02,15.98,3.00,5.00,483.00
"USC00503687","2003-01-03",35.06,26.96,150.00,165.00,660.00
"USC00503687","2003-01-04",35.06,12.92,28.00,13.00,660.00
"USC00503687","2003-01-05",12.92,1.94,0.00,0.00,610.00
"USC00503687","2003-01-06",8.06,-2.02,48.00,150.00,686.00
"USC00503687","2003-01-07",8.96,-0.94,8.00,0.00,660.00
"USC00503687","2003-01-08",32.00,3.92,145.00,132.00,787.00
"USC00503687","2003-01-09",35.96,3.92,76.00,38.00,686.00
"USC00503687","2003-01-10",39.02,33.08,13.00,0.00,559.00
"USC00503687","2003-01-11",42.98,33.08,0.00,0.00,483.00
"USC00503687","2003-01-12",42.08,33.08,0.00,0.00,457.00
"USC00503687","2003-01-13",37.04,28.04,0.00,0.00,432.00
"USC00503687","2003-01-14",39.92,28.94,0.00,0.00,432.00
"USC00503687","2003-01-15",39.02,33.98,0.00,0.00,406.00
"USC00503687","2003-01-16",42.08,37.04,0.00,0.00,381.00
"USC00503687","2003-01-17",42.98,33.98,5.00,0.00,330.00
"USC00503687","2003-01-18",37.04,28.04,0.00,0.00,330.00
"USC00503687","2003-01-19",39.92,28.94,0.00,0.00,330.00
"USC00503687","2003-01-20",39.92,28.94,0.00,0.00,330.00
"USC00503687","2003-01-21",37.94,24.98,0.00,0.00,330.00
"USC00503687","2003-01-22",37.04,24.08,0.00,0.00,330.00
"USC00503687","2003-01-23",32.00,19.94,0.00,0.00,330.00
"USC00503687","2003-01-24",35.06,26.06,0.00,0.00,330.00
"USC00503687","2003-01-25",35.96,26.96,0.00,0.00,330.00
"USC00503687","2003-01-26",32.00,26.06,0.00,0.00,330.00
"USC00503687","2003-01-27",35.06,28.04,0.00,0.00,330.00
"USC00503687","2003-01-28",39.92,33.08,0.00,0.00,305.00
"USC00503687","2003-01-29",37.94,32.00,0.00,0.00,305.00
"USC00503687","2003-01-30",39.02,26.96,0.00,0.00,305.00
"USC00503687","2003-01-31",35.06,26.06,0.00,0.00,305.00
"USC00503687","2003-02-01",35.96,26.06,0.00,0.00,305.00
"USC00503687","2003-02-02",37.94,23.00,0.00,0.00,279.00
"USC00503687","2003-02-03",46.04,26.96,0.00,0.00,254.00
"USC00503687","2003-02-04",42.08,19.04,69.00,0.00,203.00
"USC00503687","2003-02-05",,,0.00,0.00,203.00
"USC00503687","2003-02-06",39.02,30.02,0.00,0.00,178.00
"USC00503687","2003-02-07",39.92,32.00,0.00,0.00,178.00
"USC00503687","2003-02-08",41.00,35.06,79.00,0.00,152.00
"USC00503687","2003-02-09",41.00,32.00,43.00,0.00,127.00
"USC00503687","2003-02-10",39.92,35.96,0.00,0.00,127.00
"USC00503687","2003-02-11",41.00,33.98,43.00,0.00,127.00
"USC00503687","2003-02-12",35.96,32.00,20.00,0.00,127.00
"USC00503687","2003-02-13",37.94,28.94,0.00,0.00,127.00
"USC00503687","2003-02-14",39.92,28.94,0.00,0.00,127.00
"USC00503687","2003-02-15",33.08,21.92,0.00,0.00,127.00
"USC00503687","2003-02-16",32.00,15.98,0.00,0.00,127.00
"USC00503687","2003-02-17",32.00,17.96,0.00,0.00,127.00
"USC00503687","2003-02-18",35.96,21.92,0.00,0.00,127.00
"USC00503687","2003-02-19",32.00,19.94,0.00,0.00,127.00
"USC00503687","2003-02-20",30.92,21.02,0.00,0.00,127.00
"USC00503687","2003-02-21",39.02,26.06,0.00,0.00,127.00
"USC00503687","2003-02-22",35.06,26.96,0.00,0.00,127.00
"USC00503687","2003-02-23",37.04,30.02,33.00,0.00,127.00
"USC00503687","2003-02-24",39.02,32.00,0.00,0.00,127.00
"USC00503687","2003-02-25",37.04,30.02,28.00,0.00,127.00
"USC00503687","2003-02-26",39.02,32.00,0.00,0.00,127.00
"USC00503687","2003-02-27",39.92,28.04,0.00,0.00,127.00
"USC00503687","2003-02-28",39.92,30.02,0.00,0.00,127.00
"USC00503687","2003-03-01",39.92,30.92,0.00,0.00,127.00
"USC00503687","2003-03-02",44.06,30.92,20.00,0.00,127.00
"USC00503687","2003-03-03",39.92,32.00,0.00,0.00,127.00
"USC00503687","2003-03-04",37.94,26.96,0.00,0.00,127.00
"USC00503687","2003-03-05",30.92,19.04,0.00,0.00,127.00
"USC00503687","2003-03-06",28.94,14.00,0.00,0.00,127.00
"USC00503687","2003-03-07",32.00,12.92,0.00,0.00,127.00
"USC00503687","2003-03-08",33.98,15.98,0.00,0.00,127.00
"USC00503687","2003-03-09",26.06,15.08,0.00,0.00,127.00
"USC00503687","2003-03-10",28.04,12.02,0.00,0.00,127.00
"USC00503687","2003-03-11",28.04,15.08,0.00,0.00,127.00
"USC00503687","2003-03-12",21.92,5.00,0.00,0.00,127.00
"USC00503687","2003-03-13",5.00,-5.98,0.00,0.00,127.00
"USC00503687","2003-03-14",12.92,-4.00,0.00,0.00,127.00
"USC00503687","2003-03-15",35.96,10.94,53.00,89.00,229.00
"USC00503687","2003-03-16",41.00,26.96,0.00,0.00,203.00
"USC00503687","2003-03-17",39.02,24.08,0.00,0.00,178.00
"USC00503687","2003-03-18",39.02,21.02,0.00,0.00,178.00
"USC00503687","2003-03-19",28.04,21.92,30.00,64.00,229.00
"USC00503687","2003-03-20",21.02,12.02,0.00,0.00,229.00
"USC00503687","2003-03-21",15.98,8.06,89.00,229.00,457.00
"USC00503687","2003-03-22",21.02,1.94,0.00,0.00,356.00
"USC00503687","2003-03-23",24.98,6.08,0.00,0.00,356.00
"USC00503687","2003-03-24",28.94,14.00,8.00,0.00,305.00
"USC00503687","2003-03-25",41.00,8.96,0.00,0.00,229.00
"USC00503687","2003-03-26",42.08,28.94,0.00,0.00,203.00
"USC00503687","2003-03-27",32.00,26.96,0.00,0.00,203.00
"USC00503687","2003-03-28",33.98,21.02,13.00,13.00,203.00
"USC00503687","2003-03-29",33.98,17.06,0.00,0.00,203.00
"USC00503687","2003-03-30",30.92,15.98,0.00,0.00,203.00
"USC00503687","2003-03-31",30.92,17.06,0.00,0.00,203.00
"USC00503687","2003-04-01",33.08,15.08,0.00,0.00,203.00
"USC00503687","2003-04-02",32.00,19.94,0.00,0.00,203.00
"USC00503687","2003-04-03",35.96,12.92,0.00,0.00,203.00
"USC00503687","2003-04-04",37.04,15.98,0.00,0.00,203.00
"USC00503687","2003-04-05",35.06,19.04,0.00,0.00,203.00
"USC00503687","2003-04-06",30.92,21.02,0.00,0.00,203.00
"USC00503687","2003-04-07",37.94,21.92,0.00,0.00,203.00
"USC00503687","2003-04-08",42.08,26.06,0.00,0.00,178.00
"USC00503687","2003-04-09",39.92,28.04,0.00,0.00,178.00
"USC00503687","2003-04-10",39.92,26.06,0.00,0.00,152.00
"USC00503687","2003-04-11",48.02,35.06,0.00,0.00,102.00
"USC00503687","2003-04-12",46.94,33.08,0.00,0.00,76.00
"USC00503687","2003-04-13",46.94,33.08,0.00,0.00,51.00
"USC00503687","2003-04-14",39.02,26.96,0.00,0.00,25.00
"USC00503687","2003-04-15",37.94,28.04,0.00,0.00,25.00
"USC00503687","2003-04-16",33.98,26.06,0.00,0.00,0.00
"USC00503687","2003-04-17",42.98,26.96,0.00,0.00,0.00
"USC00503687","2003-04-18",46.04,28.94,0.00,0.00,0.00
"USC00503687","2003-04-19",48.02,30.02,0.00,0.00,0.00
"USC00503687","2003-04-20",42.08,33.08,0.00,0.00,0.00
"USC00503687","2003-04-21",37.94,32.00,46.00,25.00,25.00
"USC00503687","2003-04-22",37.94,30.92,117.00,102.00,127.00
"USC00503687","2003-04-23",51.08,32.00,0.00,0.00,0.00
"USC00503687","2003-04-24",51.98,37.04,0.00,0.00,0.00
"USC00503687","2003-04-25",51.08,35.06,0.00,0.00,0.00
"USC00503687","2003-04-26",55.04,35.06,0.00,0.00,0.00
"USC00503687","2003-04-27",53.96,37.04,0.00,0.00,0.00
"USC00503687","2003-04-28",51.08,35.96,0.00,0.00,0.00
"USC00503687","2003-04-29",55.94,33.08,0.00,0.00,0.00
"USC00503687","2003-04-30",59.00,35.96,0.00,0.00,0.00
"USC00503687","2003-05-01",57.92,37.94,0.00,0.00,0.00
"USC00503687","2003-05-02",57.92,39.02,0.00,0.00,0.00
"USC00503687","2003-05-03",55.04,35.06,0.00,0.00,0.00
"USC00503687","2003-05-04",55.04,39.92,0.00,0.00,0.00
"USC00503687","2003-05-05",46.04,32.00,15.00,0.00,0.00
"USC00503687","2003-05-06",46.94,28.94,0.00,0.00,0.00
"USC00503687","2003-05-07",51.08,21.92,0.00,0.00,0.00
"USC00503687","2003-05-08",53.06,35.06,0.00,0.00,0.00
"USC00503687","2003-05-09",44.06,37.94,0.00,0.00,0.00
"USC00503687","2003-05-10",42.98,33.08,43.00,0.00,0.00
"USC00503687","2003-05-11",42.08,30.92,30.00,0.00,0.00
"USC00503687","2003-05-12",42.98,30.02,0.00,0.00,0.00
"USC00503687","2003-05-13",44.06,28.04,13.00,0.00,0.00
"USC00503687","2003-05-14",44.06,26.06,10.00,0.00,0.00
"USC00503687","2003-05-15",44.06,33.08,0.00,0.00,0.00
"USC00503687","2003-05-16",46.94,32.00,0.00,0.00,0.00
"USC00503687","2003-05-17",48.92,28.94,0.00,0.00,0.00
"USC00503687","2003-05-18",50.00,30.02,0.00,0.00,0.00
"USC00503687","2003-05-19",50.00,30.02,0.00,0.00,0.00
"USC00503687","2003-05-20",55.94,30.02,0.00,0.00,0.00
"USC00503687","2003-05-21",57.92,33.08,0.00,0.00,0.00
"USC00503687","2003-05-22",59.00,37.94,0.00,0.00,0.00
"USC00503687","2003-05-23",55.04,35.06,8.00,0.00,0.00
"USC00503687","2003-05-24",53.96,39.02,0.00,0.00,0.00
"USC00503687","2003-05-25",55.04,37.94,3.00,0.00,0.00
"USC00503687","2003-05-26",55.94,37.94,0.00,0.00,0.00
"USC00503687","2003-05-27",53.06,39.92,0.00,0.00,0.00
"USC00503687","2003-05-28",55.04,33.08,0.00,0.00,0.00
"USC00503687","2003-05-29",57.92,37.04,0.00,0.00,0.00
"USC00503687","2003-05-30",55.94,41.00,0.00,0.00,0.00
"USC00503687","2003-05-31",53.06,39.02,0.00,0.00,0.00
"USC00503687","2003-06-01",50.00,37.94,0.00,0.00,0.00
"USC00503687","2003-06-02",55.04,21.02,23.00,0.00,0.00
"USC00503687","2003-06-03",55.04,33.98,3.00,0.00,0.00
"USC00503687","2003-06-04",53.96,35.96,0.00,0.00,0.00
"USC00503687","2003-06-05",48.92,42.08,81.00,0.00,0.00
"USC00503687","2003-06-06",48.92,39.92,8.00,0.00,0.00
"USC00503687","2003-06-07",55.04,35.06,0.00,0.00,0.00
"USC00503687","2003-06-08",51.08,37.94,18.00,0.00,0.00
"USC00503687","2003-06-09",53.96,42.98,8.00,0.00,0.00
"USC00503687","2003-06-10",51.08,46.04,64.00,0.00,0.00
"USC00503687","2003-06-11",53.06,44.96,81.00,0.00,0.00
"USC00503687","2003-06-12",62.06,42.98,0.00,0.00,0.00
"USC00503687","2003-06-13",66.02,50.00,8.00,0.00,0.00
"USC00503687","2003-06-14",62.06,46.94,0.00,0.00,0.00
"USC00503687","2003-06-15",55.94,39.92,0.00,0.00,0.00
"USC00503687","2003-06-16",57.92,39.92,0.00,0.00,0.00
"USC00503687","2003-06-17",59.00,44.06,0.00,0.00,0.00
"USC00503687","2003-06-18",60.08,37.94,0.00,0.00,0.00
"USC00503687","2003-06-19",60.08,39.92,0.00,0.00,0.00
"USC00503687","2003-06-20",59.00,39.92,0.00,0.00,0.00
"USC00503687","2003-06-21",57.02,42.08,0.00,0.00,0.00
"USC00503687","2003-06-22",57.92,39.92,0.00,0.00,0.00
"USC00503687","2003-06-23",57.92,39.02,0.00,0.00,0.00
"USC00503687","2003-06-24",53.06,42.08,0.00,0.00,0.00
"USC00503687","2003-06-25",51.98,37.94,0.00,0.00,0.00
"USC00503687","2003-06-26",53.06,39.92,10.00,0.00,0.00
"USC00503687","2003-06-27",53.96,39.02,0.00,0.00,0.00
"USC00503687","2003-06-28",60.98,37.04,0.00,0.00,0.00
"USC00503687","2003-06-29",64.04,44.06,0.00,0.00,0.00
"USC00503687","2003-06-30",66.02,46.94,0.00,0.00,0.00
"USC00503687","2003-07-01",64.94,50.00,8.00,0.00,0.00
"USC00503687","2003-07-02",57.92,46.94,94.00,0.00,0.00
"USC00503687","2003-07-03",62.96,42.08,0.00,0.00,0.00
"USC00503687","2003-07-04",66.92,44.06,0.00,0.00,0.00
"USC00503687","2003-07-05",62.06,51.08,0.00,0.00,0.00
"USC00503687","2003-07-06",60.08,46.04,8.00,0.00,0.00
"USC00503687","2003-07-07",69.98,44.96,0.00,0.00,0.00
"USC00503687","2003-07-08",75.02,51.98,0.00,0.00,0.00
"USC00503687","2003-07-09",73.04,55.04,0.00,0.00,0.00
"USC00503687","2003-07-10",71.06,53.96,0.00,0.00,0.00
"USC00503687","2003-07-11",60.98,51.98,0.00,0.00,0.00
"USC00503687","2003-07-12",64.04,46.94,0.00,0.00,0.00
"USC00503687","2003-07-13",73.94,48.92,0.00,0.00,0.00
"USC00503687","2003-07-14",69.98,55.94,0.00,0.00,0.00
"USC00503687","2003-07-15",69.08,53.06,0.00,0.00,0.00
"USC00503687","2003-07-16",64.94,50.00,0.00,0.00,0.00
"USC00503687","2003-07-17",60.98,46.04,0.00,0.00,0.00
"USC00503687","2003-07-18",62.96,50.00,0.00,0.00,0.00
"USC00503687","2003-07-19",64.04,42.08,0.00,0.00,0.00
"USC00503687","2003-07-20",66.92,53.06,0.00,0.00,0.00
"USC00503687","2003-07-21",66.02,53.96,0.00,0.00,0.00
"USC00503687","2003-07-22",66.02,46.94,0.00,0.00,0.00
"USC00503687","2003-07-23",66.02,48.02,0.00,0.00,0.00
"USC00503687","2003-07-24",55.94,48.92,5.00,0.00,0.00
"USC00503687","2003-07-25",55.94,48.02,5.00,0.00,0.00
"USC00503687","2003-07-26",60.98,48.02,0.00,0.00,0.00
"USC00503687","2003-07-27",64.94,46.04,0.00,0.00,0.00
"USC00503687","2003-07-28",57.92,46.94,0.00,0.00,0.00
"USC00503687","2003-07-29",57.92,44.06,0.00,0.00,0.00
"USC00503687","2003-07-30",59.00,44.96,0.00,0.00,0.00
"USC00503687","2003-07-31",60.98,48.02,0.00,0.00,0.00
"USC00503687","2003-08-01",64.04,44.06,0.00,0.00,0.00
"USC00503687","2003-08-02",64.04,42.98,0.00,0.00,0.00
"USC00503687","2003-08-03",62.06,44.06,0.00,0.00,0.00
"USC00503687","2003-08-04",66.92,44.06,0.00,0.00,0.00
"USC00503687","2003-08-05",69.08,44.06,0.00,0.00,0.00
"USC00503687","2003-08-06",69.08,50.00,0.00,0.00,0.00
"USC00503687","2003-08-07",71.96,48.02,0.00,0.00,0.00
"USC00503687","2003-08-08",73.94,53.96,0.00,0.00,0.00
"USC00503687","2003-08-09",75.02,55.04,0.00,0.00,0.00
"USC00503687","2003-08-10",75.02,53.06,0.00,0.00,0.00
"USC00503687","2003-08-11",64.94,53.06,69.00,0.00,0.00
"USC00503687","2003-08-12",57.02,48.02,20.00,0.00,0.00
"USC00503687","2003-08-13",57.02,48.02,33.00,0.00,0.00
"USC00503687","2003-08-14",55.04,48.02,18.00,0.00,0.00
"USC00503687","2003-08-15",53.96,50.00,132.00,0.00,0.00
"USC00503687","2003-08-16",51.98,46.04,130.00,0.00,0.00
"USC00503687","2003-08-17",53.96,39.92,0.00,0.00,0.00
"USC00503687","2003-08-18",57.02,39.02,0.00,0.00,0.00
"USC00503687","2003-08-19",55.04,42.08,0.00,0.00,0.00
"USC00503687","2003-08-20",53.06,37.94,84.00,0.00,0.00
"USC00503687","2003-08-21",57.02,41.00,0.00,0.00,0.00
"USC00503687","2003-08-22",62.06,41.00,0.00,0.00,0.00
"USC00503687","2003-08-23",57.92,42.08,0.00,0.00,0.00
"USC00503687","2003-08-24",57.02,46.94,0.00,0.00,0.00
"USC00503687","2003-08-25",51.98,46.04,30.00,0.00,0.00
"USC00503687","2003-08-26",60.08,44.96,102.00,0.00,0.00
"USC00503687","2003-08-27",57.02,46.94,15.00,0.00,0.00
"USC00503687","2003-08-28",53.96,48.02,43.00,0.00,0.00
"USC00503687","2003-08-29",55.94,44.96,38.00,0.00,0.00
"USC00503687","2003-08-30",,,0.00,0.00,0.00
"USC00503687","2003-08-31",,,0.00,0.00,0.00
"USC00503687","2003-09-01",59.00,39.02,0.00,0.00,0.00
"USC00503687","2003-09-02",55.04,42.08,0.00,0.00,0.00
"USC00503687","2003-09-03",55.04,42.98,0.00,0.00,0.00
"USC00503687","2003-09-04",55.04,41.00,0.00,0.00,0.00
"USC00503687","2003-09-05",55.04,39.92,0.00,0.00,0.00
"USC00503687","2003-09-06",57.92,42.08,0.00,0.00,0.00
"USC00503687","2003-09-07",57.92,37.94,0.00,0.00,0.00
"USC00503687","2003-09-08",55.94,41.00,0.00,0.00,0.00
"USC00503687","2003-09-09",55.94,39.92,38.00,0.00,0.00
"USC00503687","2003-09-10",57.92,37.94,0.00,0.00,0.00
"USC00503687","2003-09-11",60.98,41.00,0.00,0.00,0.00
"USC00503687","2003-09-12",59.00,41.00,0.00,0.00,0.00
"USC00503687","2003-09-13",55.04,39.92,0.00,0.00,0.00
"USC00503687","2003-09-14",50.00,35.06,0.00,0.00,0.00
"USC00503687","2003-09-15",50.00,30.92,0.00,0.00,0.00
"USC00503687","2003-09-16",53.06,33.08,0.00,0.00,0.00
"USC00503687","2003-09-17",51.98,28.94,0.00,0.00,0.00
"USC00503687","2003-09-18",51.98,30.92,0.00,0.00,0.00
"USC00503687","2003-09-19",48.02,30.02,0.00,0.00,0.00
"USC00503687","2003-09-20",42.08,30.92,0.00,0.00,0.00
"USC00503687","2003-09-21",48.02,28.94,0.00,0.00,0.00
"USC00503687","2003-09-22",,,0.00,0.00,0.00
"USC00503687","2003-09-23",,,0.00,0.00,0.00
"USC00503687","2003-09-24",,,0.00,0.00,0.00
"USC00503687","2003-09-25",,,0.00,0.00,0.00
"USC00503687","2003-09-26",,,0.00,0.00,0.00
"USC00503687","2003-09-27",,,0.00,0.00,0.00
"USC00503687","2003-09-28",,,0.00,0.00,0.00
"USC00503687","2003-09-29",,,0.00,0.00,0.00
"USC00503687","2003-09-30",,,0.00,0.00,0.00
"USC00503687","2003-10-01",,,0.00,0.00,0.00
"USC00503687","2003-10-02",,,0.00,0.00,0.00
"USC00503687","2003-10-03",,,0.00,0.00,0.00
"USC00503687","2003-10-04",,,0.00,0.00,0.00
"USC00503687","2003-10-05",,,0.00,0.00,0.00
"USC00503687","2003-10-06",48.02,,0.00,0.00,0.00
"USC00503687","2003-10-07",51.08,41.00,8.00,0.00,0.00
"USC00503687","2003-10-08",46.94,33.08,0.00,0.00,0.00
"USC00503687","2003-10-09",42.98,35.96,104.00,0.00,0.00
"USC00503687","2003-10-10",42.98,28.94,0.00,0.00,0.00
"USC00503687","2003-10-11",41.00,28.94,0.00,0.00,0.00
"USC00503687","2003-10-12",44.06,28.04,0.00,0.00,0.00
"USC00503687","2003-10-13",46.94,35.06,0.00,0.00,0.00
"USC00503687","2003-10-14",42.08,37.94,38.00,0.00,0.00
"USC00503687","2003-10-15",48.02,39.02,0.00,0.00,0.00
"USC00503687","2003-10-16",48.02,30.02,0.00,0.00,0.00
"USC00503687","2003-10-17",48.02,33.08,0.00,0.00,0.00
"USC00503687","2003-10-18",41.00,28.04,130.00,165.00,178.00
"USC00503687","2003-10-19",41.00,28.04,170.00,178.00,356.00
"USC00503687","2003-10-20",39.02,28.04,0.00,0.00,305.00
"USC00503687","2003-10-21",42.98,28.04,0.00,0.00,229.00
"USC00503687","2003-10-22",46.94,32.00,0.00,0.00,178.00
"USC00503687","2003-10-23",46.94,33.08,0.00,0.00,152.00
"USC00503687","2003-10-24",44.96,30.92,0.00,0.00,127.00
"USC00503687","2003-10-25",39.02,33.98,74.00,0.00,51.00
"USC00503687","2003-10-26",39.92,33.98,10.00,0.00,0.00
"USC00503687","2003-10-27",39.02,32.00,0.00,0.00,0.00
"USC00503687","2003-10-28",42.08,30.02,0.00,0.00,0.00
"USC00503687","2003-10-29",42.98,28.04,0.00,0.00,0.00
"USC00503687","2003-10-30",50.00,35.06,0.00,0.00,0.00
"USC00503687","2003-10-31",44.96,35.96,0.00,0.00,0.00
"USC00503687","2003-11-01",44.06,37.94,41.00,0.00,0.00
"USC00503687","2003-11-02",42.98,37.04,13.00,0.00,0.00
"USC00503687","2003-11-03",42.98,33.98,0.00,0.00,0.00
"USC00503687","2003-11-04",42.98,37.04,0.00,0.00,0.00
"USC00503687","2003-11-05",42.98,37.94,0.00,0.00,0.00
"USC00503687","2003-11-06",42.98,37.94,0.00,0.00,0.00
"USC00503687","2003-11-07",39.92,33.98,56.00,0.00,0.00
"USC00503687","2003-11-08",42.98,33.98,84.00,0.00,0.00
"USC00503687","2003-11-09",35.06,30.92,0.00,0.00,0.00
"USC00503687","2003-11-10",35.96,26.06,0.00,25.00,25.00
"USC00503687","2003-11-11",35.96,24.98,0.00,25.00,25.00
"USC00503687","2003-11-12",30.02,21.92,0.00,25.00,51.00
"USC00503687","2003-11-13",24.08,14.00,132.00,0.00,0.00
"USC00503687","2003-11-14",15.98,3.92,0.00,0.00,0.00
"USC00503687","2003-11-15",12.02,-0.04,0.00,0.00,0.00
"USC00503687","2003-11-16",12.02,-2.92,0.00,0.00,0.00
"USC00503687","2003-11-17",10.04,3.02,0.00,0.00,0.00
"USC00503687","2003-11-18",12.02,3.92,0.00,0.00,0.00
"USC00503687","2003-11-19",26.06,5.00,0.00,0.00,0.00
"USC00503687","2003-11-20",33.08,19.94,0.00,0.00,0.00
"USC00503687","2003-11-21",37.04,19.94,147.00,127.00,127.00
"USC00503687","2003-11-22",30.92,19.94,0.00,0.00,127.00
"USC00503687","2003-11-23",32.00,12.92,71.00,51.00,178.00
"USC00503687","2003-11-24",32.00,19.94,0.00,0.00,178.00
"USC00503687","2003-11-25",24.98,6.08,0.00,0.00,178.00
"USC00503687","2003-11-26",8.96,3.02,0.00,0.00,178.00
"USC00503687","2003-11-27",17.06,-0.94,0.00,0.00,178.00
"USC00503687","2003-11-28",30.02,14.00,20.00,25.00,203.00
"USC00503687","2003-11-29",24.08,14.00,20.00,25.00,229.00
"USC00503687","2003-11-30",26.06,8.96,0.00,0.00,229.00
"USC00503687","2003-12-01",19.04,-0.04,0.00,0.00,229.00
"USC00503687","2003-12-02",8.06,-5.98,0.00,0.00,229.00
"USC00503687","2003-12-03",30.92,5.00,277.00,330.00,533.00
"USC00503687","2003-12-04",37.94,26.96,91.00,0.00,381.00
"USC00503687","2003-12-05",30.02,15.08,0.00,0.00,381.00
"USC00503687","2003-12-06",30.02,10.04,0.00,0.00,381.00
"USC00503687","2003-12-07",33.98,10.94,0.00,0.00,381.00
"USC00503687","2003-12-08",32.00,23.00,0.00,0.00,381.00
"USC00503687","2003-12-09",35.96,30.02,112.00,0.00,381.00
"USC00503687","2003-12-10",30.92,23.00,0.00,0.00,381.00
"USC00503687","2003-12-11",32.00,21.92,0.00,0.00,381.00
"USC00503687","2003-12-12",32.00,26.96,0.00,0.00,381.00
"USC00503687","2003-12-13",28.04,21.02,64.00,102.00,483.00
"USC00503687","2003-12-14",28.94,15.98,36.00,51.00,533.00
"USC00503687","2003-12-15",30.92,23.00,0.00,0.00,533.00
"USC00503687","2003-12-16",26.06,17.06,0.00,0.00,533.00
"USC00503687","2003-12-17",23.00,17.96,69.00,25.00,559.00
"USC00503687","2003-12-18",23.00,12.92,0.00,0.00,559.00
"USC00503687","2003-12-19",23.00,10.04,0.00,0.00,559.00
"USC00503687","2003-12-20",24.98,15.98,0.00,0.00,559.00
"USC00503687","2003-12-21",24.08,12.02,33.00,0.00,584.00
"USC00503687","2003-12-22",23.00,10.04,86.00,76.00,660.00
"USC00503687","2003-12-23",15.08,10.04,20.00,51.00,711.00
"USC00503687","2003-12-24",12.92,5.00,10.00,0.00,686.00
"USC00503687","2003-12-25",12.92,-2.92,0.00,0.00,686.00
"USC00503687","2003-12-26",10.04,-0.94,0.00,0.00,686.00
"USC00503687","2003-12-27",23.00,-0.04,0.00,0.00,686.00
"USC00503687","2003-12-28",32.00,17.96,0.00,0.00,635.00
"USC00503687","2003-12-29",37.04,17.96,79.00,203.00,838.00
"USC00503687","2003-12-30",30.02,23.00,28.00,51.00,889.00
"USC00503687","2003-12-31",23.00,15.08,0.00,0.00,889.00
"USC00503687","2004-01-01",17.96,6.08,0.00,0.00,889.00
"USC00503687","2004-01-02",21.92,6.08,0.00,0.00,889.00
"USC00503687","2004-01-03",26.96,10.04,0.00,0.00,889.00
"USC00503687","2004-01-04",28.94,12.92,0.00,0.00,889.00
"USC00503687","2004-01-05",30.02,15.08,0.00,0.00,889.00
"USC00503687","2004-01-06",21.92,10.04,0.00,0.00,889.00
"USC00503687","2004-01-07",10.04,6.08,0.00,0.00,889.00
"USC00503687","2004-01-08",17.96,1.94,61.00,25.00,914.00
"USC00503687","2004-01-09",26.06,8.96,107.00,152.00,1067.00
"USC00503687","2004-01-10",26.06,17.06,61.00,51.00,1118.00
"USC00503687","2004-01-11",21.92,10.04,0.00,0.00,1118.00
"USC00503687","2004-01-12",15.08,6.98,0.00,0.00,1118.00
"USC00503687","2004-01-13",10.94,-0.94,0.00,0.00,1118.00
"USC00503687","2004-01-14",6.08,-2.92,0.00,0.00,1092.00
"USC00503687","2004-01-15",6.08,-9.94,0.00,0.00,1067.00
"USC00503687","2004-01-16",12.02,-9.94,0.00,0.00,991.00
"USC00503687","2004-01-17",6.98,-7.06,0.00,0.00,940.00
"USC00503687","2004-01-18",17.96,-5.98,0.00,0.00,940.00
"USC00503687","2004-01-19",28.04,10.04,36.00,25.00,965.00
"USC00503687","2004-01-20",37.94,23.00,0.00,0.00,965.00
"USC00503687","2004-01-21",41.00,33.08,0.00,0.00,838.00
"USC00503687","2004-01-22",37.04,17.06,56.00,51.00,864.00
"USC00503687","2004-01-23",23.00,12.02,0.00,0.00,864.00
"USC00503687","2004-01-24",28.04,12.02,0.00,0.00,864.00
"USC00503687","2004-01-25",23.00,6.08,0.00,0.00,864.00
"USC00503687","2004-01-26",26.06,8.96,91.00,102.00,940.00
"USC00503687","2004-01-27",24.08,15.98,0.00,0.00,940.00
"USC00503687","2004-01-28",23.00,14.00,61.00,51.00,965.00
"USC00503687","2004-01-29",23.00,6.08,0.00,0.00,965.00
"USC00503687","2004-01-30",,-0.04,0.00,0.00,965.00
"USC00503687","2004-01-31",33.08,-0.04,0.00,0.00,965.00
"USC00503687","2004-02-01",,,0.00,0.00,
"USC00503687","2004-02-02",,,0.00,0.00,